Terminal Aerodrome Forecast
Issued by NWS Sterling, VA

Current Version | Previous Version | Text Only | Print | Product List | Glossary Off
Versions: 1 2 3 4 5 6 7 8 9 10 11 12 13 14 15 16 17 18 19 20 21 22 23 24 25 26 27

000
FTUS41 KLWX 151120
TAFDCA
TAF
KDCA 151120Z 1512/1618 19007KT P6SM BKN150
     FM151500 21011G18KT P6SM BKN100
     FM151800 21011G18KT P6SM BKN060
     FM160800 23012G20KT 6SM -SHRA SCT025 OVC040 WS020/25035KT
     FM161700 28013G23KT P6SM BKN080=

USA.gov is the U.S. government's official web portal to all federal, state and local government web resources and services.